Location: Rancho Del Sol Observatory
(38.7214°N, 120.6350°W)
Time: 02:35:47
(UTC-08:00)

SR - Visible Passes

Search period start: 24 January 2020 00:00
Search period end: 03 February 2020 00:00
Orbit: 574 x 882 km, 66.7° (Epoch: 23 January)

Date Brightness Start Highest point End Pass type
(mag) Time Alt. Az. Time Alt. Az. Time Alt. Az.
24 Jan ? 05:36:07 10° NNE 05:37:59 12° NE 05:39:49 10° ENE visible
25 Jan ? 06:26:26 10° NNW 06:31:26 33° NE 06:36:01 10° ESE visible
26 Jan ? 05:37:26 10° N 05:41:18 19° NE 05:44:56 10° E visible
27 Jan ? 04:49:31 10° NNE 04:50:57 11° NE 04:52:19 10° NE visible
27 Jan ? 06:28:54 10° NNW 06:34:21 59° ENE 06:39:17 10° SE visible
28 Jan ? 05:39:33 10° N 05:44:25 31° NE 05:48:56 10° ESE visible
29 Jan ? 04:50:36 10° N 04:54:16 18° NE 04:57:46 10° E visible
29 Jan ? 06:31:38 10° NNW 06:37:03 73° WSW 06:41:58 10° SSE visible
30 Jan ? 04:03:11 10° NNE 04:03:54 10° NE 04:04:35 10° NE visible
30 Jan ? 05:41:58 10° NNW 05:47:21 55° ENE 05:52:14 10° SE visible
31 Jan ? 04:53:30 14° N 04:57:24 29° NE 05:01:49 10° ESE visible
31 Jan ? 06:34:41 10° NW 06:39:33 36° WSW 06:44:02 10° S visible
31 Jan ? 19:20:38 10° SSE 19:21:46 15° SSE 19:21:46 15° SSE visible
01 Feb ? 04:05:45 15° NNE 04:07:14 17° NE 04:10:33 10° E visible
01 Feb ? 05:45:12 13° NNW 05:50:05 78° WSW 05:54:59 10° SSE visible
01 Feb ? 18:33:32 10° SE 18:34:50 12° ESE 18:34:50 12° ESE visible
01 Feb ? 20:11:39 10° SSW 20:14:21 29° SSW 20:14:21 29° SSW visible
02 Feb ? 04:57:36 26° N 05:00:22 52° ENE 05:05:11 10° SE visible
02 Feb ? 19:22:19 10° S 19:27:25 49° SE 19:27:25 49° SE visible
02 Feb ? 21:05:17 10° WSW 21:06:56 17° W 21:06:56 17° W visible
